{"data":{"norad_id":59161,"intl_designator":"2024-044K","name":"STARLINK-31256","alt_names":[],"object_type":"PAYLOAD","status":"ACTIVE","operator":null,"country":"US","launch_date":"2024-03-04","launch_site_code":"AFETR","launch_vehicle":null,"mission":null,"orbit_class":"UNKNOWN","rcs_meters":null,"size_class":null,"mass_kg":null,"dimensions":null,"purposes":["comms"],"wikipedia_slug":null,"has_3d_model":false,"image_url":null,"decayed_at":null,"tle_current":{"epoch":"2026-09-19T22:00:27.828000Z","epoch_age_seconds":209188,"freshness":"STALE","line1":"1 59161U 24044K   26262.91698875  .00000869  00000+0  41098-4 0  9995","line2":"2 59161  43.0039  89.8224 0001466 261.0608  99.0078 15.27582602143308","mean_motion":15.27582602,"eccentricity":0.0001466,"inclination_deg":43.0039,"raan_deg":89.8224,"arg_perigee_deg":261.0608,"mean_anomaly_deg":99.0078,"bstar":4.1098e-5,"rev_number":14330,"period_min":94.266588144868,"perigee_km":482.03545598717,"apogee_km":484.04715346612,"semimajor_km":6861.1783047266,"source":"CELESTRAK","updated_at":"2026-09-21T09:00:34.057739Z"}}}